GW3580 Weather Reports


time (UTC)temp
C
wind
direction
speed
KPH
gust
KPH
rain 1hr
cm
rain 24hr
cm
rain mn
cm
humidity
%
barometer
mb
20260903135542 14 269 3.2 6.4 0.00 0.00 0.00 75 1013.7
20260903135037 14 288 1.6 1.6 0.00 0.00 0.00 75 1014.0
20260903134536 14 296 4.8 6.4 0.00 0.00 0.00 75 1013.7
20260903134033 14 330 0.0 1.6 0.00 0.00 0.00 75 1013.7
20260903133530 14 287 0.0 1.6 0.00 0.00 0.00 75 1013.6
20260903133025 14 269 1.6 1.6 0.00 0.00 0.00 75 1013.6
20260903132520 14 304 1.6 3.2 0.00 0.00 0.00 74 1013.7
20260903132015 14 244 6.4 8.0 0.00 0.00 0.00 74 1013.6
20260903131510 15 274 3.2 3.2 0.00 0.00 0.00 74 1013.7
20260903131009 15 273 1.6 1.6 0.00 0.00 0.00 74 1013.7
20260903130504 15 233 3.2 3.2 0.00 0.00 0.00 73 1013.4
20260903130003 15 258 3.2 3.2 0.00 0.00 0.00 73 1013.4
20260903125502 15 287 1.6 3.2 0.00 0.00 0.00 72 1013.5
20260903124957 15 252 3.2 3.2 0.00 0.00 0.00 72 1013.5
20260903124451 15 249 4.8 8.0 0.00 0.00 0.00 70 1013.5
20260903123945 15 279 4.8 6.4 0.00 0.00 0.00 69 1013.5
20260903123440 15 246 4.8 6.4 0.00 0.00 0.00 69 1013.5
20260903122939 15 261 3.2 6.4 0.00 0.00 0.00 69 1013.6
20260903122439 15 313 4.8 6.4 0.00 0.00 0.00 68 1013.7
20260903121938 15 269 3.2 6.4 0.00 0.00 0.00 68 1013.5
20260903121433 16 268 1.6 1.6 0.00 0.00 0.00 68 1013.5
20260903120929 16 246 3.2 3.2 0.00 0.00 0.00 67 1013.5
20260903120427 16 248 1.6 1.6 0.00 0.00 0.00 67 1013.5
20260903115926 16 228 3.2 3.2 0.00 0.00 0.00 67 1013.6
20260903115420 16 255 1.6 1.6 0.00 0.00 0.00 67 1013.6
20260903114915 16 254 3.2 3.2 0.00 0.00 0.00 66 1013.5
20260903114411 16 232 1.6 3.2 0.00 0.00 0.00 66 1013.7
20260903113906 16 230 1.6 3.2 0.00 0.00 0.00 66 1013.6
20260903113402 16 243 3.2 3.2 0.00 0.00 0.00 65 1013.6
20260903112857 16 262 4.8 6.4 0.00 0.00 0.00 65 1013.7
20260903112353 16 117 3.2 6.4 0.00 0.00 0.00 66 1013.6
20260903111852 16 267 3.2 3.2 0.00 0.00 0.00 66 1013.8
20260903111351 16 248 4.8 6.4 0.00 0.00 0.00 66 1013.7
20260903110848 16 221 9.7 12.9 0.00 0.00 0.00 66 1013.8
20260903110343 16 264 6.4 8.0 0.00 0.00 0.00 67 1013.7
20260903105838 16 247 4.8 6.4 0.00 0.00 0.00 67 1013.7
20260903105333 16 9 4.8 6.4 0.00 0.00 0.00 68 1013.5
20260903104833 16 275 4.8 6.4 0.00 0.00 0.00 68 1013.8
20260903104327 16 244 4.8 6.4 0.00 0.00 0.00 69 1013.9
20260903103824 16 263 3.2 3.2 0.00 0.00 0.00 69 1013.7
20260903103320 16 253 3.2 3.2 0.00 0.00 0.00 69 1013.7
20260903102815 16 276 8.0 9.7 0.00 0.00 0.00 69 1013.8
20260903102310 16 257 3.2 3.2 0.00 0.00 0.00 69 1013.8
20260903101809 16 260 3.2 6.4 0.00 0.00 0.00 69 1013.7
20260903101304 16 263 1.6 3.2 0.00 0.00 0.00 68 1013.6
20260903100800 17 243 4.8 6.4 0.00 0.00 0.00 68 1013.9
20260903100254 17 195 3.2 3.2 0.00 0.00 0.00 67 1013.8
20260903095751 17 262 4.8 8.0 0.00 0.00 0.00 67 1013.8
20260903095246 17 238 3.2 3.2 0.00 0.00 0.00 67 1013.6
20260903094741 17 258 3.2 3.2 0.00 0.00 0.00 66 1013.6
20260903094236 17 253 6.4 8.0 0.00 0.00 0.00 65 1013.6
20260903093731 17 275 3.2 3.2 0.00 0.00 0.00 66 1013.9
20260903093227 17 119 1.6 1.6 0.00 0.00 0.00 65 1013.8
20260903092726 17 247 1.6 6.4 0.00 0.00 0.00 65 1013.7
20260903092221 17 276 4.8 6.4 0.00 0.00 0.00 65 1013.9
20260903091720 17 275 4.8 6.4 0.00 0.00 0.00 65 1013.8
20260903091215 17 41 3.2 3.2 0.00 0.00 0.00 64 1013.7
20260903090710 17 240 3.2 6.4 0.00 0.00 0.00 64 1013.7
20260903090209 17 266 4.8 6.4 0.00 0.00 0.00 64 1013.9
20260903085708 17 249 3.2 3.2 0.00 0.00 0.00 64 1014.2
20260903085203 17 276 3.2 3.2 0.00 0.00 0.00 63 1013.9
20260903084701 18 285 3.2 3.2 0.00 0.00 0.00 63 1014.0
20260903084155 18 274 1.6 3.2 0.00 0.00 0.00 63 1014.0
20260903083651 18 236 3.2 3.2 0.00 0.00 0.00 63 1014.0
20260903083145 18 237 1.6 3.2 0.00 0.00 0.00 63 1013.9
20260903082639 18 260 3.2 6.4 0.00 0.00 0.00 63 1014.1
20260903082136 18 282 1.6 3.2 0.00 0.00 0.00 63 1013.8
20260903081630 18 262 3.2 3.2 0.00 0.00 0.00 64 1014.1
20260903081126 18 235 4.8 8.0 0.00 0.00 0.00 64 1014.0
20260903080622 18 327 3.2 6.4 0.00 0.00 0.00 64 1013.9
20260903080120 18 240 4.8 6.4 0.00 0.00 0.00 64 1014.0
20260903075619 18 252 3.2 3.2 0.00 0.00 0.00 64 1013.8
20260903075114 18 276 3.2 3.2 0.00 0.00 0.00 64 1014.1
20260903074613 18 247 3.2 3.2 0.00 0.00 0.00 64 1013.9
20260903074108 18 262 1.6 1.6 0.00 0.00 0.00 64 1014.1
20260903073603 18 279 3.2 3.2 0.00 0.00 0.00 64 1014.0
20260903073059 18 258 1.6 1.6 0.00 0.00 0.00 64 1013.9
20260903072555 18 250 1.6 1.6 0.00 0.00 0.00 64 1014.0
20260903072051 18 262 3.2 3.2 0.00 0.00 0.00 63 1014.0
20260903071547 18 321 1.6 1.6 0.00 0.00 0.00 63 1013.8
20260903071047 18 13 0.0 0.0 0.00 0.00 0.00 62 1014.0
20260903070542 18 319 0.0 1.6 0.00 0.00 0.00 62 1013.8
20260903070038 18 247 4.8 6.4 0.00 0.00 0.00 63 1013.7
20260903065537 18 245 1.6 1.6 0.00 0.00 0.00 63 1013.8
20260903065036 18 280 1.6 1.6 0.00 0.00 0.00 61 1013.8
20260903064531 18 235 1.6 1.6 0.00 0.00 0.00 62 1013.8
20260903064027 18 354 0.0 0.0 0.00 0.00 0.00 61 1013.7
20260903063522 18 14 0.0 1.6 0.00 0.00 0.00 61 1013.8
20260903063017 18 42 0.0 0.0 0.00 0.00 0.00 61 1013.8
20260903062512 18 106 0.0 0.0 0.00 0.00 0.00 60 1014.0
20260903062008 19 56 0.0 0.0 0.00 0.00 0.00 60 1013.7
20260903061502 19 240 1.6 1.6 0.00 0.00 0.00 59 1013.7
20260903060957 19 290 3.2 3.2 0.00 0.00 0.00 59 1013.7
20260903060452 19 57 0.0 0.0 0.00 0.00 0.00 59 1013.9
20260903055950 20 32 0.0 0.0 0.00 0.00 0.00 58 1013.9
20260903055448 20 245 1.6 1.6 0.00 0.00 0.00 58 1013.9
20260903054943 20 232 1.6 1.6 0.00 0.00 0.00 58 1013.8
20260903054437 20 244 0.0 1.6 0.00 0.00 0.00 57 1013.9
20260903053933 20 254 3.2 6.4 0.00 0.00 0.00 57 1013.9
20260903053433 20 263 3.2 3.2 0.00 0.00 0.00 57 1013.9
20260903052930 20 254 1.6 1.6 0.00 0.00 0.00 57 1014.0
20260903052425 20 261 3.2 3.2 0.00 0.00 0.00 57 1013.8
20260903051921 20 252 1.6 1.6 0.00 0.00 0.00 57 1014.0
20260903051416 20 299 1.6 3.2 0.00 0.00 0.00 57 1014.0
20260903050911 20 22 0.0 1.6 0.00 0.00 0.00 56 1014.0
20260903050410 20 250 3.2 3.2 0.00 0.00 0.00 56 1014.1
20260903045905 20 25 0.0 0.0 0.00 0.00 0.00 56 1014.2
20260903045401 20 21 0.0 0.0 0.00 0.00 0.00 56 1014.1
20260903044858 21 311 0.0 1.6 0.00 0.00 0.00 54 1014.0
20260903044357 21 325 0.0 1.6 0.00 0.00 0.00 53 1014.0
20260903043855 21 198 1.6 1.6 0.00 0.00 0.00 53 1013.9
20260903043349 21 267 0.0 0.0 0.00 0.00 0.00 53 1013.8
20260903042847 21 41 1.6 1.6 0.00 0.00 0.00 52 1013.7
20260903042343 21 234 0.0 1.6 0.00 0.00 0.00 50 1013.9
20260903041839 22 279 1.6 1.6 0.00 0.00 0.00 49 1013.6
20260903041335 22 94 0.0 1.6 0.00 0.00 0.00 47 1013.6
20260903040831 22 238 3.2 3.2 0.00 0.00 0.00 45 1013.7
20260903040329 21 130 0.0 0.0 0.00 0.00 0.00 45 1013.5
20260903035826 21 100 0.0 0.0 0.00 0.00 0.00 45 1013.6
20260903035321 21 150 0.0 0.0 0.00 0.00 0.00 45 1013.7
20260903034816 21 150 0.0 0.0 0.00 0.00 0.00 46 1013.4
20260903034311 22 150 0.0 0.0 0.00 0.00 0.00 47 1013.4
20260903033806 22 151 0.0 1.6 0.00 0.00 0.00 48 1013.3
20260903033301 22 151 0.0 0.0 0.00 0.00 0.00 47 1013.2
20260903032755 22 234 0.0 1.6 0.00 0.00 0.00 47 1013.2
20260903032252 22 253 1.6 1.6 0.00 0.00 0.00 47 1013.1
20260903031747 22 255 0.0 0.0 0.00 0.00 0.00 46 1013.1
20260903031246 22 73 0.0 0.0 0.00 0.00 0.00 46 1013.2
20260903030742 23 71 0.0 0.0 0.00 0.00 0.00 47 1013.2
20260903030238 23 59 0.0 1.6 0.00 0.00 0.00 46 1012.9
20260903025728 23 44 0.0 0.0 0.00 0.00 0.00 47 1013.2
20260903025224 23 252 0.0 0.0 0.00 0.00 0.00 46 1012.9
20260903024724 23 279 0.0 1.6 0.00 0.00 0.00 46 1012.8
20260903024222 23 2 0.0 0.0 0.00 0.00 0.00 45 1012.8
20260903023718 24 1 0.0 0.0 0.00 0.00 0.00 44 1012.8
20260903023214 24 2 0.0 0.0 0.00 0.00 0.00 41 1012.9
20260903022714 25 1 0.0 1.6 0.00 0.00 0.00 39 1012.9
20260903022213 25 348 0.0 0.0 0.00 0.00 0.00 36 1012.9
20260903021713 26 283 3.2 8.0 0.00 0.00 0.00 34 1012.9
20260903021208 26 254 4.8 6.4 0.00 0.00 0.00 33 1012.9
20260903020702 26 260 6.4 9.7 0.00 0.00 0.00 33 1013.0
20260903020157 26 282 4.8 6.4 0.00 0.00 0.00 33 1012.9
20260903015652 26 258 6.4 9.7 0.00 0.00 0.00 34 1012.9
20260903015148 26 255 4.8 6.4 0.00 0.00 0.00 33 1013.0
20260903014642 26 238 4.8 6.4 0.00 0.00 0.00 33 1013.0
20260903014142 27 269 4.8 6.4 0.00 0.00 0.00 32 1012.9
20260903013637 27 262 6.4 8.0 0.00 0.00 0.00 30 1013.0
20260903013136 27 240 4.8 6.4 0.00 0.00 0.00 32 1013.0
20260903012635 27 264 3.2 6.4 0.00 0.00 0.00 32 1013.0
20260903012135 27 281 3.2 6.4 0.00 0.00 0.00 31 1013.2
20260903011634 27 278 1.6 1.6 0.00 0.00 0.00 29 1013.1
20260903011129 27 301 3.2 6.4 0.00 0.00 0.00 29 1013.1
20260903010625 27 248 3.2 3.2 0.00 0.00 0.00 30 1013.2
20260903010123 27 247 6.4 8.0 0.00 0.00 0.00 29 1013.1
20260903005618 28 273 4.8 6.4 0.00 0.00 0.00 28 1013.3
20260903005114 27 237 3.2 3.2 0.00 0.00 0.00 29 1013.2
20260903004613 28 250 6.4 8.0 0.00 0.00 0.00 29 1013.3
20260903004108 28 271 4.8 8.0 0.00 0.00 0.00 30 1013.2
20260903003604 28 276 3.2 3.2 0.00 0.00 0.00 28 1013.5
20260903003059 28 252 3.2 3.2 0.00 0.00 0.00 27 1013.3
20260903002554 28 258 1.6 1.6 0.00 0.00 0.00 27 1013.3
20260903002048 28 264 4.8 6.4 0.00 0.00 0.00 27 1013.3
20260903001543 28 265 8.0 9.7 0.00 0.00 0.00 27 1013.4
20260903001043 29 264 4.8 6.4 0.00 0.00 0.00 28 1013.4
20260903000539 29 39 0.0 1.6 0.00 0.00 0.00 24 1013.6
20260903000037 28 54 1.6 3.2 0.00 0.00 0.00 23 1013.7
20260902235532 28 288 1.6 1.6 0.00 0.00 0.00 24 1013.6
20260902235027 28 249 8.0 9.7 0.00 0.00 0.00 22 1013.8
20260902234526 28 330 1.6 1.6 0.00 0.00 0.00 25 1013.6
20260902234025 28 248 3.2 6.4 0.00 0.00 0.00 26 1013.8
20260902233520 28 40 3.2 3.2 0.00 0.00 0.00 25 1013.8
20260902233014 29 279 9.7 11.3 0.00 0.00 0.00 24 1013.9
20260902232514 28 346 3.2 3.2 0.00 0.00 0.00 25 1013.6
20260902232003 28 242 4.8 6.4 0.00 0.00 0.00 25 1013.9
20260902231457 28 275 4.8 6.4 0.00 0.00 0.00 23 1014.0
20260902230952 28 280 3.2 3.2 0.00 0.00 0.00 26 1014.1
20260902230452 28 240 4.8 6.4 0.00 0.00 0.00 25 1013.9
20260902225951 28 240 3.2 3.2 0.00 0.00 0.00 25 1014.0
20260902225446 28 343 0.0 1.6 0.00 0.00 0.00 26 1014.1
20260902224945 28 265 3.2 3.2 0.00 0.00 0.00 24 1014.1
20260902224444 28 260 3.2 3.2 0.00 0.00 0.00 23 1014.4
20260902223942 27 286 3.2 3.2 0.00 0.00 0.00 23 1014.2
20260902223437 28 261 3.2 3.2 0.00 0.00 0.00 24 1014.3
20260902222936 28 241 1.6 3.2 0.00 0.00 0.00 26 1014.4
20260902222435 27 274 8.0 9.7 0.00 0.00 0.00 26 1014.5
20260902221934 28 276 3.2 3.2 0.00 0.00 0.00 28 1014.6
20260902221433 28 244 0.0 1.6 0.00 0.00 0.00 26 1014.6
20260902220929 28 18 1.6 3.2 0.00 0.00 0.00 29 1014.8
20260902220423 27 264 3.2 3.2 0.00 0.00 0.00 28 1014.8
20260902215918 27 255 4.8 8.0 0.00 0.00 0.00 30 1014.7
20260902215414 27 258 11.3 12.9 0.00 0.00 0.00 30 1014.9
20260902214910 27 73 3.2 3.2 0.00 0.00 0.00 29 1014.9
20260902214409 27 344 3.2 3.2 0.00 0.00 0.00 29 1015.1
20260902213903 27 278 4.8 8.0 0.00 0.00 0.00 31 1015.2
20260902213359 27 275 4.8 6.4 0.00 0.00 0.00 31 1015.0
20260902212858 26 267 4.8 6.4 0.00 0.00 0.00 31 1015.3
20260902212354 27 32 3.2 3.2 0.00 0.00 0.00 32 1015.3
20260902211851 27 273 6.4 8.0 0.00 0.00 0.00 32 1015.5
20260902211346 26 287 6.4 8.0 0.00 0.00 0.00 32 1015.4
20260902210841 26 168 1.6 1.6 0.00 0.00 0.00 35 1015.5
20260902210340 26 305 3.2 3.2 0.00 0.00 0.00 31 1015.4
20260902205839 26 247 3.2 3.2 0.00 0.00 0.00 33 1015.6
20260902205334 26 80 0.0 0.0 0.00 0.00 0.00 33 1015.6
20260902204830 26 39 8.0 8.0 0.00 0.00 0.00 33 1015.9
20260902204324 26 27 3.2 3.2 0.00 0.00 0.00 33 1015.7
20260902203820 26 73 0.0 0.0 0.00 0.00 0.00 33 1015.9
20260902203315 26 12 1.6 1.6 0.00 0.00 0.00 33 1016.0
20260902202814 26 28 1.6 1.6 0.00 0.00 0.00 34 1016.0
20260902202310 26 3 3.2 3.2 0.00 0.00 0.00 34 1016.0
20260902201807 26 322 3.2 3.2 0.00 0.00 0.00 34 1015.9
20260902201301 25 81 1.6 1.6 0.00 0.00 0.00 35 1016.0
20260902200756 25 252 4.8 6.4 0.00 0.00 0.00 38 1016.1
20260902200251 25 266 8.0 11.3 0.00 0.00 0.00 36 1016.1
20260902195747 25 45 1.6 1.6 0.00 0.00 0.00 37 1016.1
20260902195246 23 229 0.0 0.0 0.00 0.00 0.00 38 1016.0
20260902194740 24 239 4.8 6.4 0.00 0.00 0.00 37 1016.0
20260902194235 25 256 3.2 6.4 0.00 0.00 0.00 37 1016.2
20260902193731 25 315 3.2 6.4 0.00 0.00 0.00 38 1016.3
20260902193226 24 5 3.2 6.4 0.00 0.00 0.00 39 1016.5
20260902192724 24 343 1.6 1.6 0.00 0.00 0.00 39 1016.4
20260902192219 23 230 3.2 3.2 0.00 0.00 0.00 41 1016.1
20260902191719 23 48 0.0 1.6 0.00 0.00 0.00 39 1016.7
20260902191213 23 213 3.2 3.2 0.00 0.00 0.00 41 1016.5
20260902190709 23 56 0.0 1.6 0.00 0.00 0.00 41 1016.7
20260902190209 22 272 3.2 3.2 0.00 0.00 0.00 42 1016.6
20260902185704 22 185 1.6 1.6 0.00 0.00 0.00 43 1016.7
20260902185202 22 254 4.8 6.4 0.00 0.00 0.00 43 1016.8
20260902184655 22 252 4.8 8.0 0.00 0.00 0.00 44 1016.9
20260902184151 23 51 0.0 1.6 0.00 0.00 0.00 43 1016.8
20260902183647 22 228 1.6 1.6 0.00 0.00 0.00 44 1016.9
20260902183143 22 43 0.0 0.0 0.00 0.00 0.00 45 1016.9
20260902182639 21 72 1.6 1.6 0.00 0.00 0.00 47 1017.1
20260902182135 21 13 3.2 6.4 0.00 0.00 0.00 47 1017.0
20260902181631 21 228 3.2 8.0 0.00 0.00 0.00 47 1017.0
20260902181130 21 332 0.0 1.6 0.00 0.00 0.00 48 1017.1
20260902180624 21 249 3.2 6.4 0.00 0.00 0.00 49 1017.0
20260902180121 21 246 3.2 6.4 0.00 0.00 0.00 49 1017.4
20260902175620 21 252 3.2 3.2 0.00 0.00 0.00 48 1017.2
20260902175116 21 245 4.8 6.4 0.00 0.00 0.00 48 1017.2
20260902174612 21 48 1.6 1.6 0.00 0.00 0.00 45 1017.1
20260902174107 20 49 3.2 3.2 0.00 0.00 0.00 47 1017.4
20260902173602 20 291 1.6 1.6 0.00 0.00 0.00 48 1017.5
20260902173057 20 284 0.0 0.0 0.00 0.00 0.00 49 1017.3
20260902172551 20 310 3.2 6.4 0.00 0.00 0.00 50 1017.2
20260902172046 20 105 1.6 1.6 0.00 0.00 0.00 51 1017.2
20260902171542 18 80 1.6 1.6 0.00 0.00 0.00 55 1017.4
20260902171037 19 244 3.2 3.2 0.00 0.00 0.00 56 1017.4
20260902170532 20 93 0.0 1.6 0.00 0.00 0.00 53 1017.3
20260902170028 20 261 1.6 1.6 0.00 0.00 0.00 54 1017.2
20260902165527 19 103 0.0 1.6 0.00 0.00 0.00 55 1017.2
20260902165022 18 13 3.2 3.2 0.00 0.00 0.00 56 1017.2
20260902164517 18 107 1.6 1.6 0.00 0.00 0.00 58 1017.2
20260902164016 18 47 3.2 3.2 0.00 0.00 0.00 57 1017.2
20260902163512 18 76 0.0 1.6 0.00 0.00 0.00 58 1017.2
20260902163010 18 48 0.0 0.0 0.00 0.00 0.00 57 1017.3
20260902162510 18 50 0.0 0.0 0.00 0.00 0.00 58 1017.1
20260902162005 18 98 0.0 0.0 0.00 0.00 0.00 60 1017.2
20260902161500 18 60 3.2 3.2 0.00 0.00 0.00 59 1017.2
20260902160956 18 344 0.0 1.6 0.00 0.00 0.00 59 1017.2
20260902160451 17 41 0.0 0.0 0.00 0.00 0.00 61 1017.4
20260902155949 16 306 1.6 1.6 0.00 0.00 0.00 63 1017.6
20260902155445 17 248 4.8 6.4 0.00 0.00 0.00 63 1017.7
20260902154938 17 48 0.0 0.0 0.00 0.00 0.00 63 1017.6
20260902154434 17 41 1.6 1.6 0.00 0.00 0.00 63 1017.6
20260902153933 17 45 0.0 0.0 0.00 0.00 0.00 64 1017.6
20260902153432 16 52 0.0 1.6 0.00 0.00 0.00 63 1017.4
20260902152928 16 51 1.6 1.6 0.00 0.00 0.00 63 1017.4
20260902152424 16 222 1.6 1.6 0.00 0.00 0.00 65 1017.2
20260902151919 16 50 0.0 0.0 0.00 0.00 0.00 66 1017.2
20260902151415 16 220 1.6 1.6 0.00 0.00 0.00 68 1017.2
20260902150909 15 319 3.2 3.2 0.00 0.00 0.00 68 1016.9
20260902150405 15 295 1.6 1.6 0.00 0.00 0.00 68 1017.1
20260902145904 15 279 1.6 1.6 0.00 0.00 0.00 67 1016.9
20260902145400 15 313 0.0 0.0 0.00 0.00 0.00 66 1017.0
20260902144855 16 312 1.6 1.6 0.00 0.00 0.00 65 1017.0
20260902144351 15 37 0.0 0.0 0.00 0.00 0.00 66 1016.9
20260902143851 15 37 0.0 0.0 0.00 0.00 0.00 69 1016.6
20260902143346 15 37 0.0 0.0 0.00 0.00 0.00 70 1016.5
20260902142842 14 36 1.6 1.6 0.00 0.00 0.00 72 1016.5
20260902142337 13 9 0.0 0.0 0.00 0.00 0.00 73 1016.4
20260902141832 13 10 0.0 0.0 0.00 0.00 0.00 74 1016.4
20260902141328 13 10 0.0 0.0 0.00 0.00 0.00 74 1016.4
20260902140827 13 9 0.0 0.0 0.00 0.00 0.00 75 1016.3
20260902140323 13 9 0.0 0.0 0.00 0.00 0.00 75 1016.1